Overview Statistics Trail Chart Weather Telemetry Raw packets
 

This is the latest recevied weather packets stored in our database for station/object EA3IK-1. If no packets are shown the sender has not sent any weather packets the latest 10 day(s).

<< 33 34 35 36 37 38 39 >>
Time Temp. Humidity Pressure Rain* Wind** Luminosity Snow
1787817057 28.33° C 62% 1010.4 hPa 0 mm - - -
1787816156 27.22° C 63% 1010.4 hPa 0 mm - - -
1787815255 26.67° C 64% 1010.3 hPa 0 mm - - -
1787814354 26.67° C 63% 1010.3 hPa 0 mm - - -
1787813453 26.67° C 62% 1010.1 hPa 0 mm - - -
1787812552 25.56° C 62% 1009.9 hPa 0 mm - - -
1787811651 25.56° C 59% 1009.9 hPa 0 mm - - -
1787810751 25.56° C 57% 1009.9 hPa 0 mm - - -
1787809850 25° C 57% 1009.8 hPa 0 mm - - -
1787808949 25° C 61% 1009.6 hPa 0 mm - - -
1787808048 24.44° C 59% 1009.5 hPa 0 mm - - -
1787807147 25° C 59% 1009.4 hPa 0 mm - - -
1787806246 25° C 59% 1009.4 hPa 0 mm - - -
1787805345 25° C 58% 1009.2 hPa 0 mm - - -
1787804445 25° C 56% 1009.3 hPa 0 mm - - -
1787803544 25° C 56% 1009.3 hPa 0 mm - - -
1787802643 25° C 54% 1009.5 hPa 0 mm - - -
1787801748 25.56° C 56% 1009.4 hPa 0 mm - - -
1787800841 25.56° C 57% 1009.4 hPa 0 mm - - -
1787799940 25.56° C 57% 1009.4 hPa 0 mm - - -
1787799039 25.56° C 57% 1009.3 hPa 0 mm - - -
1787798139 25.56° C 57% 1009.7 hPa 0 mm - - -
1787797238 25.56° C 58% 1009.7 hPa 0 mm - - -
1787796337 25.56° C 57% 1009.7 hPa 0 mm - - -
1787795436 25.56° C 56% 1009.7 hPa 0 mm - - -

* Rain latest hour (hover to see other rain measurements)
** Current wind speed in m/s (hover to see current wind gust speed)